Location: Casteau
(50.5142°N, 4.0161°E)
Time: 06:16:29
(UTC+00:00)

NOSS 3-2 (C) - Pass Details

Date: 18 September 2020
Orbit: 795 x 1418 km, 63.4° (Epoch: 02 October)

Event Time Altitude Azimuth Distance (km) Brightness Sun altitude
Rises 18:42:20 0° 312° (NW) 3,819 7.8 -9.0°
Reaches altitude 10° 18:44:55 10° 318° (NW) 2,951 7.0 -9.4°
Maximum altitude 18:51:52 52° 34° (NE) 1,487 4.3 -10.5°
Enters shadow 18:58:45 14° 107° (ESE) 3,024 5.4 -11.5°
